[[{"header":{"parameterUnit":"m.s-1","parameterCategory":1,"la1":30.2991,"la2":30.254,"lo1":-89.0895,"lo2":-89.0444,"dy":0.0017,"dx":0.0017,"nx":28,"ny":28,"refTime":"2023-06-26T21:00:00:Z","depth":0,"parameterNumber":2,"parameterNumberName":"U-component_of_WINDS"},"data":[0,0,0,0,0,0,0,0,0,0,0,0,0,0,0,0,0,0,0,0,0,0,0,0,0,0,0,0,0,0,0,0,0,0,0,0,0,0,0,0,0,0,0,0,0,0,0,0,0,0,0,0,0,0,0,0,0,0,1.328,1.3281,0,1.3321,1.3321,1.3322,1.3296,1.3295,1.3294,1.3293,1.3342,1.3345,1.3347,0,0,0,0,0,0,0,0,0,0,0,0,0,1.3189,1.3191,1.328,1.3281,1.3281,1.332,1.3321,1.3322,1.3297,1.3295,1.3294,1.3292,1.3341,1.3344,1.3347,0,0,0,0,0,0,0,0,0,0,0,0,0,1.3229,1.3191,1.328,1.3273,1.3273,1.332,1.3321,1.3322,1.3297,1.3295,1.3293,1.3291,1.334,1.3344,1.3348,1.3406,0,0,1.3359,1.336,0,0,0,0,0,0,0,0,1.3227,1.3233,1.3274,1.3274,1.3274,1.3301,1.3307,1.335,1.3297,1.3288,1.3293,1.3291,1.3331,1.3335,1.3347,1.3409,1.3411,1.3359,1.3361,1.3363,1.3364,0,0,0,0,0,0,0,1.3224,1.3231,1.3296,1.3274,1.3274,1.3271,1.3274,1.3315,1.3319,1.3289,1.3287,1.3292,1.333,1.3343,1.3348,1.3412,1.3359,1.3362,1.3365,1.3366,1.3525,1.3526,0,0,0,0,0,0,1.3221,1.3229,1.3295,1.3298,1.3245,1.3274,1.3278,1.3294,1.3319,1.332,1.3293,1.329,1.3338,1.3344,1.3349,1.342,1.3363,1.3366,1.3368,1.3523,1.3525,1.3527,0,0,0,0,0,0,1.3219,1.3227,1.3294,1.3263,1.3271,1.3277,1.3296,1.3296,1.3309,1.3322,1.3323,1.3305,1.3337,1.3344,1.3392,1.3421,1.3368,1.3371,1.352,1.3523,1.3526,1.3562,0,0,0,0,0,0,1.3216,1.3226,1.3247,1.3263,1.3272,1.3333,1.3298,1.3298,1.3314,1.3311,1.3334,1.3336,1.3336,1.3387,1.3396,1.3425,1.3374,1.3518,1.3522,1.3525,1.3558,1.3565,1.3572,0,0,0,0,0,1.3213,1.3257,1.3248,1.3257,1.3298,1.3335,1.3341,1.3338,1.3317,1.3339,1.3347,1.3335,1.3416,1.3392,1.3402,1.3433,1.3516,1.352,1.3525,1.3555,1.3564,1.3572,0,0,0,0,0,0,1.3248,1.3259,1.325,1.33,1.3316,1.3331,1.3358,1.3348,1.3372,1.3369,1.3366,1.3372,1.3421,1.3432,1.3404,1.3491,1.3463,1.347,1.3483,1.3491,1.3498,1.3495,1.3377,0,0,0,0,0,1.326,1.3287,1.3297,1.334,1.3349,1.3352,1.3368,1.3364,1.3382,1.339,1.3402,1.3422,1.3452,1.3473,1.3501,1.3559,1.3564,1.3586,1.3593,1.3598,1.3605,1.3637,1.3646,1.3542,1.3542,1.3542,0,0,1.3289,1.3298,1.3316,1.3347,1.336,1.3389,1.3358,1.3391,1.3414,1.3396,1.3441,1.345,1.3473,1.3526,1.355,1.3537,1.3634,1.3604,1.3609,1.3612,1.3642,1.3652,1.3661,1.3545,1.3545,1.3544,0,0,1.3354,1.3364,1.3401,1.3413,1.3431,1.3433,1.3442,1.3458,1.3463,1.3507,1.3494,1.3522,1.3574,1.3591,1.3606,1.3678,1.3668,1.3687,1.3725,1.3756,1.3764,1.3771,1.3797,1.3807,1.3693,1.3693,1.3693,0,1.3388,1.3429,1.3422,1.3455,1.347,1.3452,1.3491,1.3504,1.3532,1.3544,1.3528,1.3592,1.3606,1.3663,1.368,1.3693,1.3704,1.3685,1.3763,1.377,1.3777,1.3802,1.3811,1.3696,1.3695,1.3695,1.3695,0,1.347,1.3499,1.3527,1.3551,1.3569,1.3605,1.3605,1.3625,1.362,1.3624,1.367,1.3686,1.3717,1.373,1.3727,1.3787,1.3778,1.3762,1.3734,1.3789,1.3812,1.3822,1.3699,1.3698,1.3697,1.3697,0,0,1.3559,1.3577,1.3588,1.3598,1.3617,1.3641,1.3677,1.3704,1.3722,1.3742,1.3773,1.3816,1.3802,1.3819,1.3817,1.3844,1.39,1.3825,1.3826,1.3839,1.3968,1.398,1.3991,1.3893,1.3895,1.3896,1.3967,0,1.3626,1.3686,1.368,1.3738,1.3765,1.3749,1.378,1.3796,1.3801,1.3827,1.3834,1.3864,1.3842,1.3853,1.3879,1.3888,1.3926,1.3883,1.3924,1.3926,1.3919,1.4003,1.4016,1.4081,1.3976,1.3977,1.3978,0,1.3713,1.3732,1.3792,1.3805,1.3817,1.3845,1.387,1.3894,1.3913,1.3915,1.3933,1.3926,1.3965,1.3935,1.3988,1.3959,1.3976,1.3983,1.3985,1.3989,1.3956,1.4011,1.4102,1.4112,1.3993,1.3991,1.399,0,1.3772,1.3814,1.3855,1.3865,1.3882,1.3902,1.391,1.3926,1.3943,1.3966,1.3978,1.4006,1.4021,1.4044,1.4046,1.4024,1.41,1.407,1.4104,1.4104,1.4122,1.4121,1.4218,1.4132,1.4132,1.4132,1.4132,0,1.3848,1.3886,1.3882,1.3907,1.3949,1.3943,1.3985,1.3992,1.4006,1.4034,1.4022,1.4049,1.4049,1.4078,1.4079,1.4124,1.4131,1.4135,1.4135,1.4136,1.4136,1.4148,1.4144,1.4134,1.4134,1.4133,1.4133,0,1.3922,1.3921,1.3964,1.3976,1.398,1.401,1.4022,1.4047,1.405,1.4085,1.4093,1.41,1.4132,1.4135,1.4174,1.4175,1.4229,1.4224,1.4222,1.4221,1.4255,1.4252,1.4364,1.4378,1.4283,1.4283,1.4284,0,1.3971,1.3999,1.4013,1.4029,1.4038,1.4065,1.4081,1.4077,1.4095,1.4118,1.4141,1.4171,1.4195,1.4248,1.4258,1.4287,1.4284,1.4321,1.4288,1.4288,1.4285,1.4283,1.4286,1.4327,1.4328,1.4329,1.433,0,1.4057,1.4055,1.4078,1.4101,1.412,1.4139,1.4156,1.4171,1.4169,1.419,1.4221,1.424,1.4278,1.4309,1.4338,1.4349,1.434,1.434,1.4349,1.4351,1.4348,1.435,1.4239,1.4337,1.4337,1.4336,1.4336,1.4335,1.4121,1.4144,1.4157,1.4183,1.4195,1.4211,1.4235,1.424,1.4266,1.4294,1.4291,1.4326,1.4344,1.4381,1.4395,1.4424,1.4411,1.4425,1.4429,1.4432,1.4436,1.4343,1.4429,1.4429,1.4429,1.4428,1.4428,0,1.4207,1.4214,1.4238,1.4261,1.4281,1.4268,1.4286,1.4305,1.4335,1.4352,1.4375,1.4411,1.4441,1.4452,1.4482,1.4503,1.45,1.4511,1.451,1.4513,1.4445,1.4433,1.4513,1.4513,1.4513,1.4513,1.4513,1.4513,1.4254,1.4293,1.4292,1.4338,1.4346,1.4378,1.439,1.4405,1.4418,1.4458,1.4482,1.4488,1.4503,1.4533,1.456,1.4563,1.4575,1.4588,1.4589,1.4526,1.4517,1.4509,1.4499,1.4591,1.4591,1.4655,1.4655,1.4656]},{"header":{"parameterUnit":"m.s-1","parameterCategory":1,"la1":30.2991,"la2":30.254,"lo1":-89.0895,"lo2":-89.0444,"dy":0.0017,"dx":0.0017,"nx":28,"ny":28,"refTime":"2023-06-26T21:00:00:Z","depth":0,"parameterNumber":3,"parameterNumberName":"V-component_of_WINDS"},"data":[0,0,0,0,0,0,0,0,0,0,0,0,0,0,0,0,0,0,0,0,0,0,0,0,0,0,0,0,0,0,0,0,0,0,0,0,0,0,0,0,0,0,0,0,0,0,0,0,0,0,0,0,0,0,0,0,0,0,2.4475,2.4476,0,2.4523,2.4523,2.4524,2.4518,2.4517,2.4516,2.4516,2.4563,2.4565,2.4567,0,0,0,0,0,0,0,0,0,0,0,0,0,2.4374,2.4376,2.4475,2.4476,2.4476,2.4523,2.4524,2.4524,2.4518,2.4517,2.4516,2.4515,2.4562,2.4565,2.4567,0,0,0,0,0,0,0,0,0,0,0,0,0,2.4419,2.4377,2.4475,2.4479,2.448,2.4523,2.4524,2.4524,2.4518,2.4517,2.4516,2.4515,2.4562,2.4564,2.4567,2.4609,0,0,2.4576,2.4578,0,0,0,0,0,0,0,0,2.4417,2.4423,2.4478,2.4479,2.448,2.4513,2.4505,2.4553,2.4519,2.4504,2.4516,2.4514,2.4547,2.4551,2.4563,2.4611,2.4613,2.4577,2.4578,2.458,2.4581,0,0,0,0,0,0,0,2.4414,2.4421,2.4494,2.4479,2.448,2.4477,2.4482,2.4514,2.4531,2.4505,2.4505,2.451,2.4548,2.456,2.4564,2.4614,2.4577,2.4579,2.4581,2.4582,2.4693,2.4694,0,0,0,0,0,0,2.441,2.4418,2.4493,2.4496,2.4445,2.4479,2.4485,2.4504,2.4531,2.4534,2.4511,2.451,2.4555,2.456,2.4565,2.4612,2.458,2.4582,2.4584,2.4691,2.4693,2.4694,0,0,0,0,0,0,2.4408,2.4417,2.4491,2.4457,2.4466,2.4483,2.4503,2.4505,2.4518,2.4536,2.4539,2.4521,2.4555,2.4561,2.4597,2.4614,2.4584,2.4587,2.469,2.4692,2.4694,2.4709,0,0,0,0,0,0,2.4405,2.4416,2.4434,2.4457,2.4468,2.4523,2.4504,2.4507,2.4523,2.4522,2.4546,2.4549,2.4554,2.4593,2.46,2.4618,2.4589,2.4689,2.4691,2.4693,2.4707,2.4711,2.4714,0,0,0,0,0,2.4401,2.4437,2.4435,2.4444,2.449,2.4524,2.453,2.4536,2.4525,2.4541,2.4552,2.4548,2.4611,2.4596,2.4605,2.4623,2.4688,2.469,2.4693,2.4705,2.471,2.4714,0,0,0,0,0,0,2.4416,2.444,2.4438,2.4483,2.4501,2.4523,2.4545,2.4542,2.4564,2.4562,2.4568,2.4574,2.4609,2.462,2.4603,2.4662,2.4647,2.4652,2.4654,2.4659,2.4662,2.4658,2.4591,0,0,0,0,0,2.4424,2.445,2.447,2.4507,2.4517,2.4529,2.4544,2.4546,2.4566,2.4574,2.4588,2.4606,2.4629,2.4645,2.4668,2.4708,2.4711,2.4724,2.4728,2.4731,2.4734,2.4752,2.4757,2.4703,2.4703,2.4703,0,0,2.4442,2.4458,2.4475,2.451,2.4525,2.455,2.4536,2.4564,2.4582,2.4578,2.4612,2.4622,2.4642,2.4679,2.4696,2.4689,2.475,2.4734,2.4737,2.4738,2.4755,2.476,2.4765,2.4704,2.4704,2.4704,0,0,2.4486,2.4503,2.4533,2.4547,2.4569,2.4576,2.4583,2.4604,2.4611,2.4644,2.4641,2.4661,2.4703,2.4716,2.4728,2.4771,2.4767,2.4778,2.4798,2.4815,2.4819,2.4823,2.4835,2.484,2.4782,2.4782,2.4782,0,2.4505,2.4544,2.4549,2.4576,2.459,2.4587,2.4615,2.4629,2.4657,2.4666,2.4658,2.4706,2.472,2.4758,2.4768,2.4779,2.4785,2.4776,2.4818,2.4822,2.4825,2.4837,2.4842,2.4783,2.4783,2.4783,2.4783,0,2.4564,2.459,2.4612,2.4637,2.4654,2.4682,2.4689,2.4705,2.4705,2.4712,2.4744,2.4759,2.4783,2.4793,2.4794,2.4829,2.4824,2.4817,2.4802,2.4832,2.4842,2.4847,2.4784,2.4784,2.4784,2.4784,0,0,2.4622,2.4646,2.4654,2.4663,2.4684,2.4704,2.473,2.4753,2.4764,2.4783,2.4803,2.4835,2.4827,2.4841,2.4843,2.4859,2.4887,2.4849,2.485,2.4853,2.4923,2.4926,2.4932,2.4884,2.4885,2.4886,2.492,0,2.4666,2.4712,2.4715,2.4756,2.4778,2.4772,2.4794,2.4808,2.4814,2.4833,2.4839,2.4861,2.4851,2.4858,2.4873,2.4881,2.4901,2.4878,2.4901,2.4902,2.4895,2.4938,2.4943,2.4975,2.4925,2.4925,2.4926,0,2.4724,2.4742,2.4785,2.4798,2.4808,2.4828,2.4846,2.4864,2.4878,2.4881,2.4894,2.4893,2.4917,2.4901,2.4932,2.4916,2.4925,2.493,2.4931,2.4933,2.4915,2.4939,2.4986,2.4989,2.4933,2.4933,2.4932,0,2.4758,2.4793,2.4821,2.483,2.4848,2.4861,2.4868,2.4882,2.4893,2.4909,2.4916,2.4935,2.4944,2.4958,2.496,2.4949,2.499,2.4975,2.4991,2.4991,2.5,2.4999,2.5046,2.5008,2.5008,2.5008,2.5008,0,2.4806,2.4831,2.4836,2.4854,2.4881,2.4882,2.4909,2.4915,2.4926,2.4943,2.494,2.4956,2.4959,2.4975,2.4977,2.5,2.5005,2.5006,2.5006,2.5006,2.5005,2.5011,2.5008,2.5009,2.5009,2.5009,2.5009,0,2.4848,2.4853,2.4883,2.4895,2.4899,2.4918,2.4928,2.4943,2.4947,2.4969,2.4974,2.498,2.4998,2.5002,2.5024,2.5025,2.5052,2.5051,2.5047,2.5046,2.506,2.5058,2.5113,2.5118,2.5078,2.5078,2.5079,0,2.4878,2.4897,2.491,2.4921,2.4928,2.4947,2.4957,2.4959,2.497,2.4985,2.4998,2.5015,2.5029,2.5057,2.5063,2.5079,2.5077,2.5094,2.5079,2.5076,2.5074,2.5072,2.5072,2.5097,2.5098,2.5098,2.5098,0,2.4929,2.4928,2.4945,2.496,2.4973,2.4985,2.4997,2.5006,2.5008,2.5021,2.5038,2.5049,2.5069,2.5086,2.51,2.5107,2.5102,2.5103,2.5107,2.5106,2.5102,2.5102,2.5053,2.5102,2.5101,2.5101,2.5101,2.5101,2.4964,2.4978,2.4989,2.5005,2.5014,2.5024,2.5037,2.5042,2.5057,2.5073,2.5072,2.5091,2.51,2.5119,2.5126,2.514,2.5134,2.514,2.5142,2.5143,2.5143,2.5101,2.5143,2.5142,2.5142,2.5142,2.5142,0,2.5012,2.5017,2.5032,2.5047,2.5059,2.5053,2.5065,2.5075,2.5091,2.51,2.5113,2.5131,2.5146,2.5151,2.5165,2.5174,2.5172,2.5178,2.5176,2.5177,2.5149,2.5143,2.5179,2.5179,2.5179,2.5179,2.5179,2.5179,2.5038,2.5061,2.5062,2.5088,2.5093,2.511,2.5117,2.5125,2.5132,2.5152,2.5163,2.5167,2.5174,2.5187,2.5199,2.52,2.5204,2.521,2.521,2.5183,2.518,2.5176,2.517,2.5212,2.5212,2.5237,2.5238,2.5238]}]]